Regional Weather Roundup
Issued by NWS Wakefield, VA

Home | Current Version | Previous Version | Graphics & Text | Print | Product List | Glossary On
Versions: 1 2 3 4 5 6 7 8 9 10 11 12 13 14 15 16 17 18 19 20 21 22 23 24 25 26 27 28 29 30 31 32 33 34 35 36 37 38 39 40 41 42 43 44 45 46 47 48 49 50
000
ASUS41 KAKQ 032310
RWRAKQ

REGIONAL WEATHER ROUNDUP
NATIONAL WEATHER SERVICE WAKEFIELD VA
600 PM EST TUE MAR 03 2015

Note: "fair" indicates few or no clouds below 12,000 feet with no
significant weather and/or obstructions to visibility. * = Denotes
station may not report precipitation (e.g., rain,snow,etc.),
thunder or fog.

VAZ042-051-052>054-056-040000-
NORTHERN VIRGINIA

CITY           SKY/WX    TMP DP  RH WIND       PRES   REMARKS
WASH NATIONAL  LGT RAIN  34  25  69 S12       30.10F
DULLES         LGT RAIN  33  20  58 S10G17    30.05F WCI  25
FORT BELVOIR   LGT RAIN  33  24  69 SE6       30.10F
QUANTICO       LGT RAIN  34  26  72 S13       30.12F WCI  25
FREDERICKSBRG* LGT RAIN  37  22  55 S8        30.11F
STAFFORD*      MIX PCPN  33  21  60 S7        30.14F
WARRENTON      CLOUDY    35  28  76 S9        30.07F
CULPEPER*      CLOUDY    36  21  55 S8G16     30.07F
MANASSAS*      CLOUDY    34  25  69 S8        30.09F
LEESBURG*      CLOUDY    34  27  75 S14G21    30.04F WCI  24
WINCHESTER     CLOUDY    36  19  51 S10G17    29.96F
FRONT ROYAL*   CLOUDY    36  28  75 S9        29.96F
LURAY*         MOCLDY    37  30  75 SW18G28   29.98F
$$

VAZ048-049-060>072-079>083-040000-
CENTRAL AND SOUTH CENTRAL VIRGINIA

CITY           SKY/WX    TMP DP  RH WIND       PRES   REMARKS
RICHMOND       CLOUDY    38  26  62 S15       30.14F
CHESTERFIELD*  CLOUDY    36  19  51 SW7       30.16F
PETERSBURG*    CLOUDY    37  32  84 S3        30.16F FOG
HANOVER        CLOUDY    37  22  54 S10       30.15F
TAPPAHANNOCK*  CLOUDY    36  20  51 S5        30.15F
QUINTON*       CLOUDY    37  24  60 S8        30.15F
CHARLOTTSVILLE CLOUDY    35  25  66 S16       30.07F
GORDONSVILLE*  CLOUDY    35  26  69 SW12      30.08F
ORANGE*        CLOUDY    36  23  60 S12G20    30.09F
LOUISA*        DRIZZLE   36  23  60 S8        30.08F
BUMPASS*       CLOUDY    35  19  52 SW6       30.13F
FARMVILLE*     CLOUDY    38  30  73 SW7       30.15S
CREWE*         CLOUDY    35  30  83 CALM      30.16F
FORT PICKETT*  CLOUDY    35  31  87 SW9       30.17S
CHASE CITY*    CLOUDY    35  35 100 CALM      30.17R
CLARKSVILLE*   CLOUDY    34  34 100 W3        30.18S
SOUTH HILL*    CLOUDY    33  32  96 SW3       30.22F
LAWRENCEVILLE* CLOUDY    33  32  96 CALM      30.16F
EMPORIA*       CLOUDY    34  32  93 CALM      30.19F FOG
$$

VAZ088>098-040000-
SOUTHEAST VIRGINIA

CITY           SKY/WX    TMP DP  RH WIND       PRES   REMARKS
NORFOLK        CLOUDY    42  32  67 S9        30.17R
VIRGINIA BEACH LGT RAIN  43  32  65 W5        30.17R
NORFOLK NAVAL  CLOUDY    42  32  67 W5        30.19R
WEST POINT*    CLOUDY    39  27  62 S3        30.18F
SALUDA*        CLOUDY    34  28  79 CALM      30.16F
NEWPORT NEWS   CLOUDY    39  30  70 SW6       30.17F
LANGLEY AFB    CLOUDY    38  31  74 SW3       30.16F
FORT EUSTIS    CLOUDY    36  31  79 SW2       30.15F
WILLIAMSBURG*  CLOUDY    39  30  70 CALM      30.18F
HR EXEC AP*    CLOUDY    41  34  75 CALM      30.20R
FRANKLIN*      CLOUDY    40  33  75 CALM      30.19F
WAKEFIELD      CLOUDY    37  32  82 SW5       30.18F
$$

VAZ020-022-025-037-045-040000-
WEST CENTRAL AND SOUTHWEST VIRGINIA

CITY           SKY/WX    TMP DP  RH WIND       PRES   REMARKS
STAUNTON*      CLOUDY    37  28  72 S6        30.04F
WAYNESBORO*    CLOUDY    35  27  74 CALM      30.02F
HOT SPRINGS VA SNOW      40  40 100 SW13G22   29.94F VSB<1/4
LYNCHBURG      LGT RAIN  34  29  82 SW5       30.12F
DANVILLE       CLOUDY    36  33  89 VRB3      30.15F
SOUTH BOSTON*  CLOUDY    34  33  94 CALM      30.17F
MARTINSVILLE   CLOUDY    40  35  81 S3        30.14F
ROANOKE        CLOUDY    38  33  82 S6        30.11F
BLACKSBURG     CLOUDY    35  32  88 CALM      30.08F
DUBLIN*        CLOUDY    38  36  94 CALM      30.07R
MARION*        CLOUDY    42  37  81 E5        30.06S
HILLSVILLE*    MOCLDY    38  37  94 S8        30.04F
RICHLANDS*     CLOUDY    54  49  83 SW9       29.98S
WISE*          FOG       46  46 100 SW8       30.00S VSB<1/4
ABINGDON*      RAIN      46  42  88 CALM      30.02S
$$

MDZ021>025-VAZ099-100-040000-
SOUTHERN MARYLAND AND THE DELMARVA PENINSULA

CITY           SKY/WX    TMP DP  RH WIND       PRES   REMARKS
PATUXENT RIVER LGT RAIN  33  27  78 S3        30.13F
BAY BRIDGE APT LGT RAIN  32  30  93 S8        30.12F
LEONARDTOWN    CLOUDY    32  28  86 CALM      30.15F
DOVER          FRZ RAIN  31  31 100 SE2       30.13F
GEORGETOWN     MIX PCPN  32  29  88 S5        30.14F FOG
EASTON         CLOUDY    34  34 100 SW7       30.17F FOG
CAMBRIDGE      CLOUDY    34  32  93 S3        30.13F
SALISBURY      LGT RAIN  35  31  85 CALM      30.14F
OCEAN CITY     LGT RAIN  33  31  92 CALM      30.14F
WALLOPS ISLAND LGT RAIN  35  32  88 W3        30.15F
ACCOMACK*      DRIZZLE   36  30  80 CALM      30.15F
$$

NCZ012>017-030>032-040000-
NORTH CENTRAL AND EASTERN NORTH CAROLINA

CITY           SKY/WX    TMP DP  RH WIND       PRES   REMARKS
ROANOKE RAPIDS DRIZZLE   36  36 100 SW3       30.19F
RALEIGH        DRIZZLE   36  33  89 CALM      30.18F FOG
ELIZABETH CITY CLOUDY    43  35  73 S3        30.17F
AHOSKIE*       RAIN      38  36  91 CALM      30.19F
EDENTON*       CLOUDY    42  35  75 CALM      30.18S
CURRITUCK*     CLOUDY    44  33  65 S3        30.17F
KILL DEVIL HLS CLOUDY    47  42  82 SE6       30.15F
MANTEO         CLOUDY    46  41  81 S7        30.18F
CAPE HATTERAS  CLOUDY    52  47  83 S15       30.19F
TARBORO*       DRIZZLE   39  37  91 CALM      30.21F
GOLDSBORO      MIX PCPN  39  39 100 NW3       30.18F FOG
WASHINGTON     DRIZZLE   42  40  93 CALM      30.19F
GREENVILLE     DRIZZLE   41  41 100 NW3       30.21S
NEW BERN       LGT RAIN  46  40  79 CALM      30.19F
WILMINGTON     LGT RAIN  47  46  97 CALM      30.17S FOG
$$

VAZ048-040000-
ELSEWHERE

CITY           SKY/WX    TMP DP  RH WIND       PRES   REMARKS
HARRISBURG PA  FRZ RAIN  29  25  85 S13       30.02F FOG     WCI  19
BALTIMORE      FRZ RAIN  30  26  85 SE5       30.09F FOG
ANNAPOLIS      MIX PCPN  31  27  85 S8        30.11F FOG
ANDREWS AFB    DRIZZLE   31  26  83 S9        30.09F
PHILADELPHIA   FRZ RAIN  32  29  88 S7        30.13F FOG
HENDERSON NC   CLOUDY    34  32  93 CALM      30.17F FOG
GREENSBORO     DRIZZLE   37  36  96 S5        30.14S FOG
ROCKY MOUNT    LGT RAIN  38  36  92 W3        30.20F FOG
$$

VAZ100-040000-
MARINE

STATION/POSITION TIME  TEMP    WIND        PRES    WAVE   SWELL
                       AIR SEA DIR/SP/G            HT/PER HT/PER
                 (UTC) (F)     (DEG/KT/KT) (MB)    (FT/S) (FT/S)
BRANDYWINE LGT   2300          150/  3/  4   N/A
CAPE MAY NJ      2300   33 34  110/  5/  6 1020.3F
LEWES DE         2300   32 30  150/  2/  3 1020.6S
15NM E FENWICK I 2300   36 35              1020.3F   2/ 8
OCEAN-CITY-INLET 2300             CALM       N/A
WACHAPREAGUE VA  2300   36 35  250/  2/  3 1021.1R
THOMAS POINT MD  2300   31 31  170/  4/  4 1020.4F
COVE POINT MD    2300   31     190/  8/  9 1020.4F
SOLOMONS ISLAND  2300      33                N/A
BISHOPS HEAD MD  2300   31 33  210/  6/  8 1020.6S
CAMBRIDGE MD     2300   32 32  200/  4/  9 1020.9F
LEWISETTA VA     2300          200/  1/  4 1020.2F
RAPPAHANNOCK LGT 2300          220/  6/  6 1021.6F
STINGRAY PT      2300   34     220/  4/  6   N/A
YORK RVR RNG VA  2300   34     220/  3/  3 1021.2R
YORKTOWN VA      2300   35 34   CALM  /  1 1021.4F
DOMINION TERM VA 2300   35     300/  4/  5 1021.8F
KIPTOPEKE VA     2300      38  180/  1/  2   N/A
CHES BAY BRIDGE  2300           CALM  /  2   N/A
CAPE HENRY VA    2300   41     200/  3/  5 1020.1F
CHESAPEAKE LGHT  2200   36     220/  7/  7 1022.4F
WILLOUBY STN VA  2300          270/  2/  3 1022.1S
S CRANEY ISL VA  2300          280/  4/  4 1021.9F
CAPE HENRY BUOY  2300      35                N/A     2/ 5
1ST LANDING BUOY 2300   35     340/  4/  6 1021.3R
OFFSHORE WE BUOY 2300      36                N/A     3/ 9   2/ 9
64NM E OF VA BCH 2300   58 61  180/ 23/ 29 1020.2F   3/ 6   2/ 7
DUCK PIER NC     2300   42 36  160/  7/  7 1020.7F
44100 DUCK FRF   2300      37                N/A     3/ 6
44056 DUCK FRF   2300      35                N/A     3/ 6
OREGON INLET NC  2300   44 41  120/  5/  7 1022.1F
HATTERAS NC      2300   52 44  160/  8/ 12 1022.6R
CAPE LOOKOUT NC  2200   56     140/ 11/ 11 1021.9F
$$



USA.gov is the U.S. government's official web portal to all federal, state and local government web resources and services.